Change the Weather History Date:

Friday, May 3, 2013

  Actual Average (KRDU) Record (KRDU)
Temperature  
Mean Temperature 60 °F 65 °F  
Max Temperature 69 °F 77 °F 93 °F (1959)
Min Temperature 50 °F 53 °F 37 °F (1978)
Degree Days  
Heating Degree Days 6 3  
Month to date heating degree days 10  
Since 1 July heating degree days 3199  
Cooling Degree Days 0 3  
Month to date cooling degree days 9  
Year to date cooling degree days 70  
Growing Degree Days 10 (Base 50)    
Moisture  
Dew Point 47 °F    
Average Humidity 63    
Maximum Humidity 100    
Minimum Humidity 40    
Precipitation  
Precipitation 0.00 in 0.09 in 1.95 in (1972)
Month to date precipitation 0.26  
Year to date precipitation 14.02  
Sea Level Pressure  
Sea Level Pressure 30.25 in    
Wind  
Wind Speed 6 mph (NE)    
Max Wind Speed 17 mph    
Max Gust Speed 23 mph    
Visibility 10 miles    
Events      
T = Trace of Precipitation, MM = Missing Value Source: NWS Daily Summary

Daily Weather History Graph

Daily Weather History Graph

Search for Another Location

Airport or City:

Trip Planner

Search our weather history database for the weather conditions in past years. The results will help you decide how hot, cold, wet, or windy it might be!

Date:

Astronomy

May. 03, 2013 Rise Set
Actual Time 6:18 AM EDT 8:02 PM EDT
Civil Twilight 5:50 AM EDT 8:30 PM EDT
Nautical Twilight 5:17 AM EDT 9:03 PM EDT
Astronomical Twilight 4:42 AM EDT 9:39 PM EDT
Moon 2:29 AM EDT (5/3) 2:06 PM EDT (5/3)
Length of Visible Light 14h 39m
Length of Day
13h 44m
Last Quarter, 37% of the Moon is Illuminated
May 3
Last Quarter
May 9
New
May 18
First Quarter
May 25
Full
May 31
Last Quarter

Hourly Weather History & Observations

Time (EDT) Temp. Dew Point Humidity Pressure Visibility Wind Dir Wind Speed Gust Speed Precip Events Conditions
12:15 AM - - N/A% 30.29 in 10.0 mi NE 3.5 mph - N/A   Clear
12:35 AM - - N/A% 30.28 in 10.0 mi Calm Calm - N/A   Clear
12:55 AM - - N/A% 30.27 in 7.0 mi Calm Calm - N/A   Clear
1:15 AM - - N/A% 30.27 in 10.0 mi Calm Calm - N/A   Clear
1:35 AM - - N/A% 30.26 in 10.0 mi NNE 3.5 mph - N/A   Clear
1:55 AM - - N/A% 30.26 in 10.0 mi North 3.5 mph - N/A   Clear
2:15 AM - - N/A% 30.25 in 10.0 mi Calm Calm - N/A   Clear
2:35 AM - - N/A% 30.25 in 10.0 mi North 3.5 mph - N/A   Clear
2:55 AM - - N/A% 30.24 in 10.0 mi North 3.5 mph - N/A   Clear
3:15 AM - - N/A% 30.24 in 10.0 mi Calm Calm - N/A   Clear
3:35 AM - - N/A% 30.24 in 7.0 mi Calm Calm - N/A   Clear
3:55 AM - - N/A% 30.24 in 7.0 mi North 3.5 mph - N/A   Clear
4:15 AM - - N/A% 30.24 in 10.0 mi North 3.5 mph - N/A   Clear
4:35 AM - - N/A% 30.24 in 10.0 mi North 3.5 mph - N/A   Clear
4:55 AM - - N/A% 30.24 in 10.0 mi North 3.5 mph - N/A   Clear
5:15 AM - - N/A% 30.24 in 10.0 mi North 3.5 mph - N/A   Clear
5:35 AM - - N/A% 30.24 in 10.0 mi Calm Calm - N/A   Clear
5:55 AM - - N/A% 30.24 in 7.0 mi Calm Calm - N/A   Clear
6:15 AM - - N/A% 30.25 in 7.0 mi Calm Calm - N/A   Clear
6:35 AM - - N/A% 30.25 in 5.0 mi Calm Calm - N/A   Haze
6:55 AM - - N/A% 30.26 in 5.0 mi Calm Calm - N/A   Haze
7:15 AM - - N/A% 30.26 in 7.0 mi North 4.6 mph - N/A   Clear
7:35 AM - - N/A% 30.27 in 7.0 mi NNE 5.8 mph - N/A   Clear
7:55 AM - - N/A% 30.27 in 7.0 mi NNE 6.9 mph - N/A   Clear
8:15 AM - - N/A% 30.27 in 10.0 mi NNE 5.8 mph - N/A   Mostly Cloudy
8:35 AM - - N/A% 30.27 in 10.0 mi NNE 4.6 mph - N/A   Scattered Clouds
8:55 AM - - N/A% 30.28 in 10.0 mi NE 8.1 mph - N/A   Mostly Cloudy
9:15 AM - - N/A% 30.28 in 7.0 mi NE 6.9 mph - N/A   Overcast
9:35 AM - - N/A% 30.28 in 10.0 mi NE 6.9 mph - N/A   Overcast
9:55 AM - - N/A% 30.28 in 10.0 mi NNE 11.5 mph 17.3 mph N/A   Overcast
10:15 AM 57.2 °F 57.2 °F 100% 30.28 in 10.0 mi ENE 9.2 mph - N/A   Overcast
10:35 AM 59.0 °F 59.0 °F 100% 30.28 in 10.0 mi NE 10.4 mph 16.1 mph N/A   Mostly Cloudy
10:55 AM 60.8 °F 53.6 °F 77% 30.28 in 10.0 mi NE 11.5 mph 16.1 mph N/A   Mostly Cloudy
11:15 AM 62.6 °F 51.8 °F 68% 30.28 in 10.0 mi NE 15.0 mph 19.6 mph N/A   Mostly Cloudy
11:35 AM 64.4 °F 51.8 °F 64% 30.28 in 10.0 mi ENE 13.8 mph 18.4 mph N/A   Mostly Cloudy
11:55 AM 64.4 °F 51.8 °F 64% 30.28 in 10.0 mi East 9.2 mph - N/A   Mostly Cloudy
12:15 PM 64.4 °F 53.6 °F 68% 30.28 in 10.0 mi ENE 12.7 mph 18.4 mph N/A   Mostly Cloudy
12:35 PM 64.4 °F 51.8 °F 64% 30.28 in 10.0 mi NE 11.5 mph - N/A   Mostly Cloudy
12:55 PM 64.4 °F 51.8 °F 64% 30.27 in 10.0 mi East 12.7 mph - N/A   Mostly Cloudy
1:15 PM 64.4 °F 51.8 °F 64% 30.26 in 10.0 mi ENE 10.4 mph 18.4 mph N/A   Mostly Cloudy
1:35 PM 66.2 °F 51.8 °F 60% 30.25 in 10.0 mi ENE 13.8 mph 17.3 mph N/A   Mostly Cloudy
1:55 PM 66.2 °F 51.8 °F 60% 30.24 in 10.0 mi NE 13.8 mph 20.7 mph N/A   Mostly Cloudy
2:15 PM 68.0 °F 51.8 °F 56% 30.24 in 10.0 mi ENE 13.8 mph 18.4 mph N/A   Mostly Cloudy
2:35 PM 69.8 °F 51.8 °F 53% 30.23 in 10.0 mi ENE 10.4 mph 20.7 mph N/A   Scattered Clouds
2:55 PM 69.8 °F 50.0 °F 49% 30.22 in 10.0 mi NE 15.0 mph 23.0 mph N/A   Scattered Clouds
3:15 PM 68.0 °F 50.0 °F 52% 30.21 in 10.0 mi ENE 11.5 mph 19.6 mph N/A   Scattered Clouds
3:35 PM 68.0 °F 50.0 °F 52% 30.20 in 10.0 mi East 10.4 mph 16.1 mph N/A   Scattered Clouds
3:55 PM 68.0 °F 48.2 °F 49% 30.20 in 10.0 mi NE 10.4 mph - N/A   Mostly Cloudy
4:15 PM 68.0 °F 46.4 °F 46% 30.20 in 10.0 mi NE 11.5 mph 18.4 mph N/A   Mostly Cloudy
4:35 PM 68.0 °F 42.8 °F 40% 30.20 in 10.0 mi East 11.5 mph 20.7 mph N/A   Scattered Clouds
4:55 PM 68.0 °F 42.8 °F 40% 30.20 in 10.0 mi NE 11.5 mph - N/A   Scattered Clouds
5:15 PM 68.0 °F 42.8 °F 40% 30.20 in 10.0 mi NE 11.5 mph - N/A   Scattered Clouds
5:35 PM 66.2 °F 46.4 °F 49% 30.20 in 10.0 mi NE 16.1 mph - N/A   Scattered Clouds
5:55 PM 64.4 °F 46.4 °F 52% 30.20 in 10.0 mi ENE 11.5 mph 20.7 mph N/A   Scattered Clouds
6:15 PM 62.6 °F 46.4 °F 55% 30.21 in 10.0 mi ENE 12.7 mph - N/A   Scattered Clouds
6:35 PM 62.6 °F 44.6 °F 52% 30.21 in 10.0 mi ENE 6.9 mph - N/A   Mostly Cloudy
6:55 PM 60.8 °F 44.6 °F 55% 30.21 in 10.0 mi NNE 16.1 mph 21.9 mph N/A   Scattered Clouds
7:15 PM 59.0 °F 44.6 °F 59% 30.22 in 10.0 mi NE 17.3 mph - N/A   Clear
7:35 PM 59.0 °F 44.6 °F 59% 30.23 in 10.0 mi NE 12.7 mph 17.3 mph N/A   Mostly Cloudy
7:55 PM 57.2 °F 42.8 °F 59% 30.24 in 10.0 mi East 9.2 mph 16.1 mph N/A   Overcast
8:15 PM 55.4 °F 42.8 °F 63% 30.25 in 10.0 mi ENE 8.1 mph - N/A   Scattered Clouds
8:35 PM 53.6 °F 42.8 °F 67% 30.25 in 10.0 mi ENE 8.1 mph 16.1 mph N/A   Clear
8:55 PM 53.6 °F 42.8 °F 67% 30.25 in 10.0 mi ENE 8.1 mph - N/A   Clear
9:15 PM 53.6 °F 42.8 °F 67% 30.25 in 10.0 mi ENE 12.7 mph - N/A   Clear
9:35 PM 53.6 °F 42.8 °F 67% 30.26 in 10.0 mi ENE 8.1 mph - N/A   Clear
9:55 PM 51.8 °F 42.8 °F 71% 30.27 in 10.0 mi NE 6.9 mph - N/A   Clear
10:15 PM 51.8 °F 42.8 °F 71% 30.26 in 10.0 mi ENE 8.1 mph - N/A   Clear
10:35 PM 51.8 °F 42.8 °F 71% 30.26 in 10.0 mi NE 6.9 mph - N/A   Scattered Clouds
10:55 PM 51.8 °F 42.8 °F 71% 30.25 in 10.0 mi NE 6.9 mph - N/A   Scattered Clouds
11:15 PM 50.0 °F 44.6 °F 82% 30.25 in 10.0 mi NE 8.1 mph - N/A   Clear
11:35 PM 50.0 °F 44.6 °F 82% 30.24 in 10.0 mi NE 6.9 mph - N/A   Clear
11:55 PM 50.0 °F 44.6 °F 82% 30.25 in 10.0 mi NE 9.2 mph - N/A   Clear